Regional Weather Roundup
Issued by NWS

Home | Current Version | Previous Version | Graphics & Text | Print | Product List | Glossary On
Versions: 1 2 3 4 5 6 7 8 9 10 11 12 13 14 15 16 17 18 19 20 21 22 23 24 25 26 27 28 29 30 31 32 33 34 35 36 37 38 39 40 41 42 43 44 45 46 47 48 49 50
000
ASUS43 KTOP 181759
RWRKS

WEATHER ROUNDUP FOR KANSAS
NATIONAL WEATHER SERVICE GOODLAND KS
100 PM CDT WED OCT 18 2017

NOTE:  "FAIR" INDICATES FEW OR NO CLOUDS BELOW 12,000 FEET WITH NO
SIGNIFICANT WEATHER AND/OR OBSTRUCTIONS TO VISIBILITY.

KSZ001>006-013>018-027>032-041>047-181900-
NORTHWEST KANSAS

CITY           SKY/WX    TMP DP  RH WIND       PRES   REMARKS
GOODLAND         N/A     79  21  11 N20G30    30.07S
6HR MIN TEMP:  47; 6HR MAX TEMP:  80;

HAYS           SUNNY     77  45  32 MISG      29.98F
HILL CITY      SUNNY     79  34  19 N9        29.99S
6HR MIN TEMP:  38; 6HR MAX TEMP:  81;

RUSSELL        SUNNY     71  48  43 SW8       29.97F
6HR MIN TEMP:  43; 6HR MAX TEMP:  71;

$$

KSZ061>065-074>080-084>089-181900-
SOUTHWEST KANSAS

CITY           SKY/WX    TMP DP  RH WIND       PRES   REMARKS
DODGE CITY     SUNNY     80  39  23 W3        30.02R
6HR MIN TEMP:  43; 6HR MAX TEMP:  80;

ELKHART          N/A     79  44  28 SE3         N/A
GARDEN CITY    SUNNY     79  40  24 NW5       30.03S
6HR MIN TEMP:  34; 6HR MAX TEMP:  79;

GREAT BEND     SUNNY     72  48  42 S3        30.00S
LIBERAL        SUNNY     75  42  30 E3        30.04F
$$

KSZ066>073-081>083-090>101-181900-
SOUTHEAST KANSAS

CITY           SKY/WX    TMP DP  RH WIND       PRES   REMARKS
CHANUTE        SUNNY     71  48  43 S20G25    30.06F
6HR MIN TEMP:  47; 6HR MAX TEMP:  72; 6HR PCP: TRACE;

COFFEYVILLE    SUNNY     72  48  42 S20G29    30.07F
6HR MIN TEMP:  47; 6HR MAX TEMP:  72;

HUTCHINSON     SUNNY     73  48  41 SW13      30.00S
6HR MIN TEMP:  47; 6HR MAX TEMP:  73;

MEDICINE LODGE   N/A     73  47  39 MISG      29.99F
NEWTON         SUNNY     69  48  47 S18       30.01F
PARSONS        LGT RAIN  70  47  43 S18G25    30.07F
6HR MIN TEMP:  50; 6HR MAX TEMP:  71; 6HR PCP: TRACE;

WICHITA INTL   MOSUNNY   71  49  45 S18       30.01F
6HR MIN TEMP:  52; 6HR MAX TEMP:  72;

WICHITA JABRA  SUNNY     69  49  48 S12       30.01F
6HR MIN TEMP:  50; 6HR MAX TEMP:  70;

WICHITA MCCONL SUNNY     72  47  42 SW14      30.01F
WINFIELD       SUNNY     73  48  41 S17G23    30.04F
6HR MIN TEMP:  52; 6HR MAX TEMP:  73; 6HR PCP: TRACE;

$$

KSZ007>012-019>026-033>040-048>060-102>105-181900-
NORTHEAST KANSAS

CITY           SKY/WX    TMP DP  RH WIND       PRES   REMARKS
CONCORDIA      SUNNY     66  50  56 S10       29.97F
6HR MIN TEMP:  51; 6HR MAX TEMP:  67;

EMPORIA        SUNNY     73  48  41 S17G24    30.01F
6HR MIN TEMP:  50; 6HR MAX TEMP:  73;

LAWRENCE       SUNNY     71  48  43 S15       30.01F
6HR MIN TEMP:  48; 6HR MAX TEMP:  71;

MANHATTAN      SUNNY     70  48  45 SW10      29.99R
6HR MIN TEMP:  43; 6HR MAX TEMP:  71;

OLATHE IND     SUNNY     71  49  45 S15G26    30.04F
6HR MIN TEMP:  48; 6HR MAX TEMP:  71;

OLATHE EXE     SUNNY     69  46  43 S18       30.03F
6HR MIN TEMP:  48; 6HR MAX TEMP:  69;

SALINA         SUNNY     72  50  45 S10       29.99S
6HR MIN TEMP:  50; 6HR MAX TEMP:  72;

TOPEKA BILLARD SUNNY     71  48  43 SW14G22   30.00S
6HR MIN TEMP:  54; 6HR MAX TEMP:  71;

TOPEKA FORBES  SUNNY     72  48  42 S16G22    30.00F
6HR MIN TEMP:  54; 6HR MAX TEMP:  72;

$$




USA.gov is the U.S. government's official web portal to all federal, state and local government web resources and services.